* Astronomy

Members Login
Post Info TOPIC: SL-23 rocket body Re-entry


L

Posts: 131433
Date:
RE: SL-23 rocket body Re-entry
Permalink  
 


Man finds piece of Russian rocket in Moffat County

While hiking near Moffat County Road 9 last month, Robert Dunn heard a noise he said sounded like scraping.
Several hours later, Dunn, a 57-year-old resident of Dixon, Wyo., who was searching for horns shed by deer and elk at the time, found what he believes caused the strange noise - a pressurant tank from a Russian rocket.

Read more 



__________________


L

Posts: 131433
Date:
Permalink  
 

Update:
The SL-23 rocket body re-entered the Earths atmosphere on the 19th March, 2011 @ 22:51 GMT ± 1 minute.

Inclination: 51.34°
Revolution Number: 834
Predicted Location:  34°N, 242°E

__________________


L

Posts: 131433
Date:
Permalink  
 

Update:
The SL-23 rocket body is predicted to re-enter the Earths atmosphere on the 19th March, 2011 @ 12:09 GMT ± 48 hours.

TLE Data
SL-23 RB
1 37346U 11001C 11075.88702195 .01721125 11911-4 17489-3 0 1361
2 37346 051.3352 026.7059 0086114 276.8882 082.2781 16.24529770 7844

Period:       88.77 minutes
Inclination: 51.34°
Apogee:     273 km
Perigee:     154 km
Revolution Number: 834
Predicted Location:  30.2°S, 68.5°E

__________________


L

Posts: 131433
Date:
Permalink  
 

Update:
The SL-23 rocket body is predicted to re-enter the Earths atmosphere on the 19th March, 2011 @ 12:09 GMT ± 48 hours.

TLE Data
SL-23 RB
1 37346U 11001C 11074.34665883 .01417690 11750-4 25529-3 0 1301
2 37346 051.3304 035.2280 0098133 271.2964 087.7075 16.19290953 7596

Period:       89.09 minutes
Inclination: 51.34°
Apogee:     300 km
Perigee:     158 km
Size:          6.31 metres
Revolution Number: 826
Predicted Location:  47.1°S, 314.6°E

__________________


L

Posts: 131433
Date:
Permalink  
 

Update:
The SL-23 rocket body is predicted to re-enter the Earths atmosphere on the 15th March, 2011 @ --:-- GMT  ±-- hours.

TLE Data
SL-23 RB
1 37346U 11001C 11073.17292443 .01256001 11646-4 26308-3 0 1261
2 37346 051.3404 041.7146 0108775 267.2819 091.5845 16.15900337 7406

Period:       89.22 minutes
Inclination: 51.34°
Apogee:     311 km
Perigee:     160 km
Size:          5 metres
Revolution Number: -
Predicted Location:  -

__________________


L

Posts: 131433
Date:
Permalink  
 

Update:
The SL-23 rocket body is predicted to re-enter the Earths atmosphere on the 13th March, 2011 @ --:-- GMT  ±-- hours.

TLE Data
SL-23 RB
1 37346U 11001C 11069.63803196 +.00934381 +11374-4 +29586-3 0 01150
2 37346 051.3395 061.0166 0136122 252.6668 105.9451 16.06669960006832

Period:       89.66 minutes
Inclination: 51.34°
Apogee:     349 km
Perigee:     166 km
Size:          5 metres
Revolution Number: -
Predicted Location:  -

__________________


L

Posts: 131433
Date:
Permalink  
 

Update:
The SL-23 rocket body is predicted to re-enter the Earths atmosphere on the 13th March, 2011 @ --:-- GMT  ±-- hours.

TLE Data
SL-23 RB
1 37346U 11001C 11068.33090685 .00992190 11302-4 33942-3 0 1106
2 37346 051.3426 068.0958 0144347 247.3951 111.1910 16.04249871 6626

Period:       89.79 minutes
Inclination: 51.34°
Apogee:     360 km
Perigee:     168 km
Size:          5 metres
Revolution Number: -
Predicted Location:  -

__________________


L

Posts: 131433
Date:
Permalink  
 

Update:
The SL-23 rocket body is predicted to re-enter the Earths atmosphere on the 7th March, 2011 @ --:-- GMT  ±-- hours.

TLE Data
SL-23 RB
1 37346U 11001C 11066.52259687 .00779172 11216-4 30509-3 0 1051
2 37346 051.3411 077.8458 0154197 239.8110 118.7555 16.00930821 6334

Period:       90.03 minutes
Inclination: 51.34°
Apogee:     382 km
Perigee:     170 km
Size:          5 metres
Revolution Number: -
Predicted Location:  -

__________________


L

Posts: 131433
Date:
Permalink  
 

Update:
The SL-23 rocket body is predicted to re-enter the Earths atmosphere on the 7th March, 2011 @ --:-- GMT  ±-- hours.

TLE Data
SL-23 RB
1 37346U 11001C 11056.23908033 .00590300 10914-4 32653-3 0 761
2 37346 051.3494 132.5903 0203094 198.2166 161.0758 15.87177728 4695

Period:       90.84 minutes
Inclination: 51.34°
Apogee:     457 km
Perigee:     174 km
Revolution Number: -
Predicted Location:  -


__________________


L

Posts: 131433
Date:
Permalink  
 

A SL-23 rocket body that was launched on the 20th January, 2011, from the Baikonur Cosmodrome, Kazakhstan, for the Elektro-Lsatellite mission is predicted to re-enter the Earths atmosphere on the 4th March, 2011 @ --:-- GMT  ±-- hours.

TLE Data
SL-23 RB
1 37346U 11001C 11050.56077656 .00583825 10808-4 36635-3 0 590
2 37346 051.3450 162.3970 0228685 175.5674 184.7508 15.80364554 3790

Period:       91.16 minutes
Inclination: 51.35°
Apogee:     487 km
Perigee:     177 km
Revolution Number: -
Predicted Location:  -


__________________
Page 1 of 1  sorted by
 
Quick Reply

Please log in to post quick replies.



Create your own FREE Forum
Report Abuse
Powered by ActiveBoard